| time (UTC) | temp F | wind direction | speed knots | gust knots | rain 1hr in | rain 24hr in | rain mn in | humidity % | barometer mb |
| 20260831151205 | 64 | 257 | 6.1 | 12.2 | 0.00 | 0.22 | 0.01 | 77 | 1008.1 |
| 20260831150205 | 63 | 165 | 5.2 | 13.0 | 0.00 | 0.22 | 0.01 | 78 | 1008.0 |
| 20260831145708 | 63 | 263 | 5.2 | 13.0 | 0.00 | 0.22 | 0.01 | 78 | 1007.9 |
| 20260831145205 | 64 | 331 | 5.2 | 13.0 | 0.00 | 0.22 | 0.01 | 77 | 1007.8 |
| 20260831144705 | 64 | 170 | 6.1 | 13.0 | 0.00 | 0.22 | 0.01 | 76 | 1007.8 |
| 20260831144210 | 64 | 252 | 5.2 | 10.4 | 0.00 | 0.22 | 0.01 | 76 | 1007.7 |
| 20260831143704 | 64 | 259 | 4.3 | 9.6 | 0.00 | 0.22 | 0.01 | 77 | 1007.7 |
| 20260831142708 | 65 | 227 | 4.3 | 12.2 | 0.00 | 0.22 | 0.01 | 77 | 1007.6 |
| 20260831142205 | 65 | 303 | 4.3 | 12.2 | 0.00 | 0.22 | 0.01 | 77 | 1007.6 |
| 20260831141708 | 65 | 261 | 4.3 | 12.2 | 0.00 | 0.22 | 0.01 | 77 | 1007.6 |
| 20260831141205 | 65 | 257 | 4.3 | 18.2 | 0.00 | 0.22 | 0.01 | 77 | 1007.5 |
| 20260831140705 | 65 | 253 | 6.1 | 18.2 | 0.00 | 0.22 | 0.01 | 76 | 1007.5 |
| 20260831140205 | 65 | 269 | 8.7 | 11.3 | 0.00 | 0.22 | 0.01 | 76 | 1007.4 |
| 20260831135705 | 65 | 294 | 7.0 | 11.3 | 0.00 | 0.22 | 0.01 | 76 | 1007.4 |
| 20260831135205 | 64 | 290 | 4.3 | 11.3 | 0.00 | 0.22 | 0.01 | 78 | 1007.4 |
| 20260831134705 | 64 | 278 | 3.5 | 11.3 | 0.00 | 0.22 | 0.01 | 77 | 1007.4 |
| 20260831134205 | 64 | 267 | 4.3 | 11.3 | 0.00 | 0.22 | 0.01 | 77 | 1007.4 |
| 20260831133207 | 65 | 274 | 5.2 | 11.3 | 0.00 | 0.22 | 0.01 | 78 | 1007.4 |
| 20260831132705 | 65 | 269 | 6.1 | 13.9 | 0.00 | 0.22 | 0.01 | 76 | 1007.3 |
| 20260831131705 | 65 | 257 | 5.2 | 10.4 | 0.00 | 0.22 | 0.01 | 77 | 1007.2 |
| 20260831130205 | 65 | 211 | 4.3 | 9.6 | 0.00 | 0.22 | 0.01 | 77 | 1006.9 |
| 20260831125705 | 65 | 296 | 4.3 | 9.6 | 0.00 | 0.22 | 0.01 | 78 | 1006.8 |
| 20260831125205 | 65 | 277 | 3.5 | 8.7 | 0.00 | 0.22 | 0.01 | 79 | 1006.7 |
| 20260831124708 | 65 | 238 | 3.5 | 8.7 | 0.00 | 0.22 | 0.01 | 79 | 1006.7 |
| 20260831124205 | 65 | 296 | 2.6 | 13.0 | 0.00 | 0.22 | 0.01 | 80 | 1006.7 |
| 20260831123709 | 65 | 234 | 2.6 | 13.0 | 0.00 | 0.22 | 0.01 | 81 | 1006.6 |
| 20260831123206 | 65 | 264 | 3.5 | 13.0 | 0.00 | 0.22 | 0.01 | 82 | 1006.7 |
| 20260831122706 | 64 | 246 | 5.2 | 13.9 | 0.00 | 0.22 | 0.01 | 81 | 1006.7 |
| 20260831122206 | 64 | 288 | 4.3 | 13.9 | 0.00 | 0.22 | 0.01 | 80 | 1006.6 |
| 20260831121705 | 64 | 275 | 4.3 | 15.6 | 0.00 | 0.23 | 0.01 | 81 | 1006.6 |
| 20260831121205 | 64 | 252 | 6.1 | 15.6 | 0.00 | 0.23 | 0.01 | 81 | 1006.5 |
| 20260831120705 | 64 | 242 | 6.1 | 16.5 | 0.00 | 0.23 | 0.01 | 78 | 1006.5 |
| 20260831120205 | 66 | 257 | 6.1 | 16.5 | 0.00 | 0.23 | 0.01 | 78 | 1006.4 |
| 20260831115705 | 66 | 214 | 5.2 | 12.2 | 0.00 | 0.25 | 0.01 | 77 | 1006.3 |
| 20260831115206 | 67 | 255 | 5.2 | 12.2 | 0.00 | 0.25 | 0.01 | 77 | 1006.2 |
| 20260831114705 | 67 | 269 | 6.1 | 13.0 | 0.00 | 0.28 | 0.01 | 78 | 1006.1 |
| 20260831114205 | 67 | 274 | 6.1 | 13.0 | 0.00 | 0.28 | 0.01 | 80 | 1006.0 |
| 20260831113705 | 66 | 280 | 4.3 | 11.3 | 0.00 | 0.33 | 0.01 | 83 | 1006.0 |
| 20260831113205 | 64 | 232 | 3.5 | 11.3 | 0.00 | 0.33 | 0.01 | 82 | 1006.0 |
| 20260831112705 | 65 | 238 | 4.3 | 12.2 | 0.00 | 0.33 | 0.01 | 81 | 1006.0 |
| 20260831112205 | 65 | 209 | 4.3 | 12.2 | 0.00 | 0.34 | 0.01 | 80 | 1006.0 |
| 20260831111705 | 66 | 210 | 3.5 | 12.2 | 0.00 | 0.34 | 0.01 | 79 | 1006.0 |
| 20260831111205 | 67 | 265 | 3.5 | 9.6 | 0.00 | 0.35 | 0.01 | 79 | 1005.9 |
| 20260831110705 | 67 | 278 | 4.3 | 9.6 | 0.00 | 0.35 | 0.01 | 80 | 1005.8 |
| 20260831110224 | 68 | 286 | 3.5 | 7.8 | 0.00 | 0.36 | 0.01 | 78 | 1005.8 |
| 20260831105207 | 67 | 226 | 2.6 | 7.8 | 0.00 | 0.36 | 0.01 | 81 | 1005.8 |
| 20260831104705 | 66 | 192 | 2.6 | 11.3 | 0.00 | 0.39 | 0.01 | 83 | 1005.8 |
| 20260831104205 | 65 | 249 | 2.6 | 11.3 | 0.00 | 0.39 | 0.01 | 85 | 1005.7 |
| 20260831103205 | 65 | 232 | 3.5 | 11.3 | 0.00 | 0.40 | 0.01 | 84 | 1005.7 |
| 20260831102705 | 65 | 275 | 2.6 | 9.6 | 0.00 | 0.40 | 0.01 | 85 | 1005.6 |
| 20260831102205 | 65 | 180 | 2.6 | 9.6 | 0.00 | 0.40 | 0.01 | 86 | 1005.6 |
| 20260831101704 | 65 | 275 | 2.6 | 9.6 | 0.00 | 0.40 | 0.01 | 88 | 1005.4 |
| 20260831100720 | 63 | 226 | 2.6 | 7.8 | 0.00 | 0.40 | 0.01 | 92 | 1005.4 |
| 20260831100205 | 62 | 197 | 2.6 | 8.7 | 0.00 | 0.40 | 0.01 | 93 | 1005.3 |
| 20260831095205 | 60 | 277 | 2.6 | 8.7 | 0.00 | 0.40 | 0.01 | 96 | 1005.2 |
| 20260831094705 | 60 | 208 | 2.6 | 10.4 | 0.00 | 0.41 | 0.01 | 96 | 1005.2 |
| 20260831093708 | 60 | 219 | 3.5 | 7.0 | 0.00 | 0.41 | 0.01 | 96 | 1005.0 |
| 20260831093205 | 59 | 264 | 3.5 | 7.0 | 0.00 | 0.41 | 0.01 | 96 | 1005.0 |
| 20260831092706 | 59 | 252 | 2.6 | 9.6 | 0.00 | 0.41 | 0.01 | 97 | 1005.0 |
| 20260831092205 | 59 | 304 | 2.6 | 9.6 | 0.00 | 0.41 | 0.01 | 97 | 1004.9 |
| 20260831091704 | 59 | 205 | 2.6 | 9.6 | 0.00 | 0.41 | 0.01 | 97 | 1004.9 |
| 20260831091205 | 59 | 232 | 2.6 | 7.8 | 0.00 | 0.41 | 0.01 | 97 | 1004.8 |
| 20260831090706 | 59 | 186 | 1.7 | 7.8 | 0.00 | 0.41 | 0.01 | 97 | 1004.7 |
| 20260831090205 | 59 | 240 | 1.7 | 8.7 | 0.00 | 0.41 | 0.01 | 97 | 1004.7 |
| 20260831085705 | 59 | 234 | 2.6 | 8.7 | 0.00 | 0.41 | 0.01 | 96 | 1004.7 |
| 20260831085205 | 59 | 227 | 2.6 | 8.7 | 0.00 | 0.41 | 0.01 | 96 | 1004.6 |
| 20260831084705 | 59 | 221 | 1.7 | 8.7 | 0.00 | 0.41 | 0.01 | 96 | 1004.6 |
| 20260831084205 | 59 | 273 | 1.7 | 8.7 | 0.00 | 0.41 | 0.01 | 97 | 1004.5 |
| 20260831083705 | 59 | 245 | 1.7 | 5.2 | 0.00 | 0.41 | 0.01 | 97 | 1004.5 |
| 20260831083205 | 59 | 259 | 0.9 | 5.2 | 0.00 | 0.41 | 0.01 | 97 | 1004.5 |
| 20260831082705 | 59 | 250 | 0.9 | 7.0 | 0.00 | 0.41 | 0.01 | 97 | 1004.5 |
| 20260831082205 | 59 | 259 | 0.9 | 7.0 | 0.00 | 0.41 | 0.01 | 97 | 1004.4 |
| 20260831081706 | 59 | 207 | 0.9 | 7.0 | 0.00 | 0.41 | 0.01 | 96 | 1004.3 |
| 20260831081205 | 59 | 245 | 0.9 | 3.5 | 0.00 | 0.41 | 0.01 | 97 | 1004.2 |
| 20260831080704 | 59 | 281 | 0.9 | 3.5 | 0.00 | 0.41 | 0.01 | 97 | 1004.2 |
| 20260831080205 | 59 | 267 | 0.9 | 3.5 | 0.00 | 0.42 | 0.01 | 97 | 1004.1 |
| 20260831075705 | 59 | 226 | 0.9 | 3.5 | 0.00 | 0.42 | 0.01 | 97 | 1004.1 |
| 20260831075204 | 58 | 232 | 0.0 | 3.5 | 0.00 | 0.42 | 0.01 | 97 | 1004.0 |
| 20260831073705 | 58 | 271 | 0.0 | 1.7 | 0.00 | 0.43 | 0.01 | 97 | 1004.0 |
| 20260831073205 | 57 | 231 | 0.0 | 1.7 | 0.00 | 0.43 | 0.01 | 97 | 1003.9 |
| 20260831072205 | 57 | 212 | 0.0 | 0.9 | 0.00 | 0.43 | 0.01 | 97 | 1003.8 |
| 20260831071205 | 56 | 245 | 0.0 | 2.6 | 0.00 | 0.43 | 0.01 | 96 | 1003.7 |
| 20260831070705 | 56 | 263 | 0.0 | 2.6 | 0.00 | 0.43 | 0.01 | 96 | 1003.7 |
| 20260831070205 | 56 | 225 | 0.0 | 3.5 | 0.00 | 0.43 | 0.01 | 97 | 1003.7 |
| 20260831064707 | 56 | 232 | 0.0 | 1.7 | 0.00 | 0.43 | 0.01 | 97 | 1003.5 |
| 20260831064205 | 55 | 231 | 0.0 | 1.7 | 0.00 | 0.43 | 0.01 | 96 | 1003.5 |
| 20260831063705 | 55 | 317 | 0.0 | 2.6 | 0.00 | 0.43 | 0.01 | 96 | 1003.4 |
| 20260831061705 | 55 | 222 | 0.9 | 2.6 | 0.00 | 0.43 | 0.01 | 96 | 1003.2 |
| 20260831055705 | 55 | 206 | 0.9 | 2.6 | 0.00 | 0.45 | 0.01 | 96 | 1002.8 |
| 20260831055206 | 55 | 217 | 0.9 | 2.6 | 0.00 | 0.45 | 0.01 | 96 | 1002.8 |
| 20260831054705 | 55 | 208 | 0.9 | 2.6 | 0.00 | 0.47 | 0.01 | 96 | 1002.8 |
| 20260831054208 | 55 | 208 | 0.9 | 2.6 | 0.00 | 0.47 | 0.01 | 96 | 1002.8 |
| 20260831053705 | 55 | 206 | 0.9 | 3.5 | 0.00 | 0.49 | 0.01 | 96 | 1002.7 |
| 20260831053206 | 55 | 206 | 0.9 | 3.5 | 0.00 | 0.49 | 0.01 | 96 | 1002.6 |
| 20260831052705 | 55 | 206 | 0.0 | 4.3 | 0.01 | 0.49 | 0.01 | 96 | 1002.6 |
| 20260831052205 | 55 | 206 | 0.9 | 4.3 | 0.01 | 0.50 | 0.01 | 96 | 1002.6 |
| 20260831051705 | 55 | 221 | 1.7 | 4.3 | 0.01 | 0.50 | 0.01 | 96 | 1002.6 |
| 20260831050730 | 55 | 207 | 2.6 | 4.3 | 0.01 | 0.50 | 0.01 | 96 | 1002.5 |
| 20260831050205 | 55 | 211 | 1.7 | 0.9 | 0.01 | 0.51 | 0.01 | 96 | 1002.4 |
| 20260831045705 | 54 | 207 | 0.0 | 0.9 | 0.01 | 0.51 | 0.01 | 96 | 1002.3 |
| 20260831045205 | 54 | 207 | 0.0 | 0.9 | 0.01 | 0.51 | 0.01 | 96 | 1002.2 |
| 20260831044705 | 54 | 207 | 0.0 | 0.9 | 0.01 | 0.51 | 0.01 | 96 | 1002.2 |
| 20260831044205 | 54 | 246 | 0.0 | 0.9 | 0.01 | 0.51 | 0.01 | 96 | 1002.1 |
| 20260831043706 | 54 | 270 | 0.0 | 0.9 | 0.01 | 0.51 | 0.01 | 96 | 1002.1 |
| 20260831043205 | 55 | 274 | 0.0 | 0.9 | 0.01 | 0.51 | 0.01 | 96 | 1002.1 |
| 20260831042208 | 55 | 276 | 0.0 | 1.7 | 0.00 | 0.50 | 0.00 | 96 | 1002.1 |
| 20260831041705 | 55 | 276 | 0.0 | 1.7 | 0.00 | 0.50 | 0.00 | 96 | 1002.0 |
| 20260831041205 | 55 | 254 | 0.0 | 1.7 | 0.00 | 0.50 | 0.00 | 96 | 1002.1 |
| 20260831040731 | 55 | 232 | 0.0 | 0.9 | 0.00 | 0.50 | 0.00 | 96 | 1002.2 |
| 20260831040206 | 55 | 211 | 0.0 | 0.9 | 0.00 | 0.50 | 0.00 | 96 | 1002.2 |
| 20260831035707 | 55 | 277 | 0.0 | 0.9 | 0.00 | 0.50 | 0.00 | 96 | 1002.2 |
| 20260831035205 | 55 | 277 | 0.0 | 0.9 | 0.00 | 0.50 | 0.00 | 96 | 1002.1 |
| 20260831034705 | 55 | 272 | 0.0 | 0.9 | 0.00 | 0.50 | 0.00 | 96 | 1002.1 |
| 20260831034205 | 55 | 238 | 0.0 | 0.9 | 0.00 | 0.50 | 0.00 | 96 | 1002.1 |
| 20260831033205 | 55 | 238 | 0.0 | 0.9 | 0.00 | 0.50 | 0.00 | 96 | 1002.0 |
| 20260831032720 | 55 | 238 | 0.0 | 0.9 | 0.00 | 0.50 | 0.00 | 96 | 1002.0 |
| 20260831032205 | 55 | 238 | 0.0 | 0.9 | 0.00 | 0.50 | 0.00 | 96 | 1001.9 |
| 20260831031705 | 55 | 238 | 0.0 | 0.9 | 0.00 | 0.50 | 0.00 | 96 | 1001.9 |
| 20260831031205 | 55 | 238 | 0.0 | 0.9 | 0.00 | 0.50 | 0.00 | 96 | 1001.9 |
| 20260831030705 | 55 | 238 | 0.0 | 0.9 | 0.00 | 0.50 | 0.00 | 96 | 1001.8 |
| 20260831030205 | 55 | 238 | 0.0 | 0.0 | 0.00 | 0.50 | 0.00 | 96 | 1001.8 |
| 20260831025705 | 55 | 238 | 0.0 | 0.0 | 0.00 | 0.50 | 0.00 | 96 | 1001.8 |
| 20260831024705 | 55 | 238 | 0.0 | 0.9 | 0.00 | 0.50 | 0.00 | 96 | 1001.8 |
| 20260831024205 | 55 | 238 | 0.0 | 0.9 | 0.00 | 0.50 | 0.00 | 96 | 1001.8 |
| 20260831023705 | 55 | 238 | 0.0 | 0.9 | 0.00 | 0.50 | 0.00 | 96 | 1001.7 |
| 20260831022205 | 56 | 340 | 0.0 | 0.9 | 0.00 | 0.51 | 0.00 | 96 | 1001.7 |
| 20260831021705 | 56 | 340 | 0.0 | 0.9 | 0.00 | 0.51 | 0.00 | 96 | 1001.7 |
| 20260831021207 | 56 | 340 | 0.0 | 0.9 | 0.00 | 0.51 | 0.00 | 96 | 1001.7 |
| 20260831020704 | 56 | 340 | 0.0 | 0.0 | 0.00 | 0.51 | 0.00 | 96 | 1001.7 |
| 20260831015705 | 56 | 340 | 0.0 | 0.9 | 0.00 | 0.51 | 0.00 | 96 | 1001.7 |
| 20260831015206 | 56 | 340 | 0.0 | 0.9 | 0.00 | 0.51 | 0.00 | 96 | 1001.7 |
| 20260831014705 | 56 | 340 | 0.0 | 1.7 | 0.00 | 0.51 | 0.00 | 96 | 1001.7 |
| 20260831014205 | 56 | 340 | 0.0 | 1.7 | 0.00 | 0.51 | 0.00 | 96 | 1001.7 |
| 20260831013205 | 56 | 340 | 0.0 | 3.5 | 0.00 | 0.51 | 0.00 | 96 | 1001.7 |
| 20260831012707 | 56 | 340 | 0.9 | 3.5 | 0.00 | 0.51 | 0.00 | 96 | 1001.7 |
| 20260831012205 | 56 | 340 | 0.9 | 3.5 | 0.00 | 0.51 | 0.00 | 96 | 1001.7 |
| 20260831010708 | 56 | 296 | 0.9 | 2.6 | 0.00 | 0.51 | 0.00 | 96 | 1001.7 |
| 20260831010205 | 56 | 296 | 0.9 | 0.9 | 0.00 | 0.51 | 0.00 | 96 | 1001.7 |
| 20260831005705 | 56 | 296 | 0.0 | 0.9 | 0.00 | 0.51 | 0.00 | 96 | 1001.7 |
| 20260831005205 | 56 | 296 | 0.0 | 0.9 | 0.00 | 0.51 | 0.00 | 96 | 1001.7 |
| 20260831004705 | 56 | 296 | 0.0 | 0.9 | 0.00 | 0.51 | 0.00 | 96 | 1001.7 |
| 20260831004205 | 56 | 296 | 0.0 | 0.9 | 0.00 | 0.51 | 0.00 | 96 | 1001.7 |
| 20260831003705 | 56 | 296 | 0.0 | 1.7 | 0.00 | 0.51 | 0.00 | 96 | 1001.6 |
| 20260831002704 | 56 | 296 | 0.0 | 1.7 | 0.00 | 0.51 | 0.00 | 96 | 1001.6 |
| 20260831002208 | 56 | 296 | 0.0 | 1.7 | 0.00 | 0.51 | 0.00 | 96 | 1001.7 |
| 20260831001705 | 56 | 296 | 0.0 | 1.7 | 0.00 | 0.51 | 0.00 | 96 | 1001.7 |
| 20260831001205 | 56 | 296 | 0.0 | 0.0 | 0.00 | 0.51 | 0.00 | 96 | 1001.7 |
| 20260831000704 | 56 | 296 | 0.0 | 1.7 | 0.00 | 0.51 | 0.00 | 95 | 1001.6 |
| 20260831000205 | 56 | 296 | 0.0 | 1.7 | 0.00 | 0.51 | 0.00 | 96 | 1001.5 |
| 20260830235205 | 57 | 296 | 0.0 | 1.7 | 0.00 | 0.52 | 0.00 | 96 | 1001.5 |
| 20260830234706 | 57 | 296 | 0.0 | 1.7 | 0.00 | 0.53 | 0.00 | 96 | 1001.5 |
| 20260830234205 | 57 | 296 | 0.0 | 1.7 | 0.00 | 0.53 | 0.00 | 96 | 1001.5 |
| 20260830233705 | 57 | 296 | 0.0 | 1.7 | 0.00 | 0.53 | 0.00 | 96 | 1001.5 |
| 20260830233205 | 57 | 296 | 0.0 | 0.9 | 0.00 | 0.53 | 0.00 | 96 | 1001.5 |
| 20260830232705 | 57 | 296 | 0.0 | 0.9 | 0.00 | 0.53 | 0.00 | 96 | 1001.5 |
| 20260830232206 | 57 | 296 | 0.0 | 0.9 | 0.00 | 0.53 | 0.00 | 96 | 1001.5 |
| 20260830231705 | 57 | 286 | 0.0 | 1.7 | 0.00 | 0.53 | 0.00 | 96 | 1001.6 |
| 20260830231205 | 57 | 286 | 0.0 | 1.7 | 0.00 | 0.53 | 0.00 | 96 | 1001.6 |
| 20260830230205 | 57 | 287 | 0.0 | 0.9 | 0.00 | 0.53 | 0.53 | 96 | 1001.6 |
| 20260830225708 | 57 | 76 | 0.0 | 0.9 | 0.00 | 0.53 | 0.53 | 96 | 1001.7 |
| 20260830225205 | 57 | 76 | 0.0 | 0.9 | 0.00 | 0.53 | 0.53 | 95 | 1001.7 |
| 20260830224705 | 57 | 76 | 0.0 | 0.0 | 0.00 | 0.53 | 0.53 | 95 | 1001.8 |
| 20260830224211 | 57 | 76 | 0.0 | 0.0 | 0.00 | 0.53 | 0.53 | 95 | 1001.8 |
| 20260830223705 | 57 | 76 | 0.0 | 0.0 | 0.00 | 0.53 | 0.53 | 96 | 1001.7 |
| 20260830223205 | 57 | 76 | 0.0 | 0.0 | 0.00 | 0.53 | 0.53 | 96 | 1001.7 |
| 20260830222706 | 57 | 76 | 0.0 | 0.0 | 0.00 | 0.53 | 0.53 | 96 | 1001.7 |
| 20260830222206 | 57 | 76 | 0.0 | 0.0 | 0.00 | 0.53 | 0.53 | 96 | 1001.7 |
| 20260830221205 | 57 | 76 | 0.0 | 0.0 | 0.00 | 0.53 | 0.53 | 95 | 1001.9 |
| 20260830220705 | 58 | 76 | 0.0 | 0.9 | 0.00 | 0.53 | 0.53 | 95 | 1001.9 |
| 20260830220205 | 58 | 76 | 0.0 | 0.9 | 0.00 | 0.53 | 0.53 | 95 | 1001.9 |
| 20260830215219 | 58 | 76 | 0.0 | 0.9 | 0.00 | 0.53 | 0.53 | 95 | 1001.9 |
| 20260830214705 | 58 | 76 | 0.0 | 0.9 | 0.00 | 0.53 | 0.53 | 95 | 1001.8 |
| 20260830214204 | 58 | 76 | 0.0 | 0.9 | 0.00 | 0.53 | 0.53 | 96 | 1001.8 |
| 20260830213706 | 58 | 76 | 0.0 | 0.0 | 0.00 | 0.53 | 0.53 | 95 | 1001.8 |
| 20260830212705 | 58 | 76 | 0.0 | 2.6 | 0.00 | 0.53 | 0.53 | 95 | 1001.7 |
| 20260830211705 | 58 | 76 | 0.0 | 2.6 | 0.00 | 0.53 | 0.53 | 95 | 1001.7 |
| 20260830211205 | 58 | 76 | 0.9 | 2.6 | 0.00 | 0.53 | 0.53 | 95 | 1001.7 |
| 20260830210705 | 58 | 76 | 0.9 | 0.9 | 0.00 | 0.53 | 0.53 | 95 | 1001.7 |
| 20260830210205 | 58 | 76 | 0.0 | 0.9 | 0.00 | 0.53 | 0.53 | 95 | 1001.8 |
| 20260830205705 | 58 | 26 | 0.0 | 0.9 | 0.00 | 0.53 | 0.53 | 95 | 1001.7 |
| 20260830205206 | 58 | 26 | 0.9 | 0.9 | 0.00 | 0.53 | 0.53 | 95 | 1001.8 |
| 20260830204705 | 58 | 26 | 0.0 | 0.9 | 0.00 | 0.53 | 0.53 | 95 | 1001.9 |
| 20260830204206 | 58 | 26 | 0.0 | 0.9 | 0.00 | 0.53 | 0.53 | 95 | 1001.9 |
| 20260830203705 | 58 | 26 | 0.0 | 1.7 | 0.00 | 0.53 | 0.53 | 95 | 1001.8 |
| 20260830203205 | 58 | 26 | 0.0 | 1.7 | 0.00 | 0.53 | 0.53 | 95 | 1001.8 |
| 20260830202204 | 58 | 26 | 0.0 | 1.7 | 0.00 | 0.53 | 0.53 | 95 | 1001.7 |
| 20260830201705 | 58 | 26 | 0.0 | 1.7 | 0.00 | 0.53 | 0.53 | 95 | 1001.8 |
| 20260830201234 | 58 | 26 | 0.0 | 1.7 | 0.00 | 0.53 | 0.53 | 95 | 1001.8 |
| 20260830200705 | 58 | 26 | 0.0 | 1.7 | 0.00 | 0.53 | 0.53 | 95 | 1001.9 |
| 20260830200205 | 58 | 26 | 0.9 | 2.6 | 0.00 | 0.53 | 0.53 | 95 | 1001.9 |
| 20260830195205 | 58 | 26 | 0.0 | 2.6 | 0.00 | 0.53 | 0.53 | 95 | 1001.9 |
| 20260830194705 | 58 | 26 | 0.9 | 2.6 | 0.00 | 0.53 | 0.53 | 95 | 1001.9 |
| 20260830194205 | 58 | 26 | 0.9 | 2.6 | 0.00 | 0.53 | 0.53 | 95 | 1001.9 |
| 20260830193705 | 58 | 17 | 0.9 | 1.7 | 0.00 | 0.53 | 0.53 | 95 | 1001.9 |
| 20260830193205 | 58 | 17 | 0.9 | 1.7 | 0.00 | 0.53 | 0.53 | 95 | 1001.9 |
| 20260830192206 | 58 | 15 | 0.0 | 1.7 | 0.00 | 0.53 | 0.53 | 95 | 1001.9 |
| 20260830191705 | 58 | 9 | 0.9 | 1.7 | 0.00 | 0.53 | 0.53 | 95 | 1001.9 |
| 20260830191205 | 58 | 9 | 0.9 | 3.5 | 0.00 | 0.53 | 0.53 | 95 | 1002.0 |
| 20260830190705 | 58 | 107 | 0.0 | 3.5 | 0.00 | 0.53 | 0.53 | 95 | 1001.9 |
| 20260830190205 | 59 | 107 | 0.9 | 3.5 | 0.00 | 0.53 | 0.53 | 95 | 1001.9 |
| 20260830185705 | 59 | 107 | 1.7 | 3.5 | 0.00 | 0.53 | 0.53 | 95 | 1001.9 |
| 20260830185205 | 59 | 107 | 1.7 | 3.5 | 0.00 | 0.53 | 0.53 | 95 | 1002.0 |
| 20260830184705 | 59 | 101 | 1.7 | 5.2 | 0.00 | 0.53 | 0.53 | 95 | 1002.0 |
| 20260830184205 | 59 | 111 | 2.6 | 5.2 | 0.00 | 0.53 | 0.53 | 95 | 1002.0 |
| 20260830183705 | 59 | 96 | 2.6 | 7.0 | 0.00 | 0.53 | 0.53 | 95 | 1002.0 |
| 20260830183206 | 59 | 97 | 2.6 | 6.1 | 0.00 | 0.53 | 0.53 | 95 | 1002.0 |
| 20260830181704 | 59 | 88 | 2.6 | 5.2 | 0.01 | 0.53 | 0.53 | 94 | 1002.0 |
| 20260830181205 | 59 | 73 | 0.9 | 3.5 | 0.02 | 0.53 | 0.53 | 94 | 1002.1 |
| 20260830180705 | 59 | 79 | 0.9 | 2.6 | 0.02 | 0.53 | 0.53 | 95 | 1002.1 |
| 20260830180205 | 59 | 79 | 0.9 | 3.5 | 0.02 | 0.53 | 0.53 | 95 | 1002.1 |
| 20260830175706 | 59 | 79 | 1.7 | 3.5 | 0.02 | 0.53 | 0.53 | 95 | 1002.2 |
| 20260830175205 | 59 | 79 | 1.7 | 3.5 | 0.02 | 0.53 | 0.53 | 94 | 1002.1 |
| 20260830174705 | 59 | 79 | 0.9 | 3.5 | 0.06 | 0.53 | 0.53 | 94 | 1002.2 |
| 20260830174204 | 59 | 74 | 0.9 | 3.5 | 0.06 | 0.53 | 0.53 | 94 | 1002.2 |
| 20260830173705 | 59 | 78 | 1.7 | 6.1 | 0.16 | 0.53 | 0.53 | 94 | 1002.3 |
| 20260830173205 | 59 | 69 | 1.7 | 7.0 | 0.21 | 0.53 | 0.53 | 94 | 1002.4 |
| 20260830172705 | 59 | 80 | 2.6 | 7.0 | 0.20 | 0.52 | 0.53 | 94 | 1002.4 |
| 20260830172205 | 59 | 97 | 3.5 | 7.0 | 0.20 | 0.52 | 0.50 | 94 | 1002.4 |
| 20260830171705 | 59 | 80 | 3.5 | 7.0 | 0.19 | 0.50 | 0.50 | 94 | 1002.5 |
| 20260830171205 | 59 | 107 | 3.5 | 7.0 | 0.19 | 0.50 | 0.50 | 94 | 1002.5 |
| 20260830170705 | 59 | 119 | 3.5 | 7.0 | 0.19 | 0.50 | 0.50 | 94 | 1002.6 |
| 20260830170205 | 59 | 104 | 2.6 | 7.0 | 0.19 | 0.50 | 0.50 | 93 | 1002.5 |
| 20260830165705 | 59 | 71 | 2.6 | 7.0 | 0.19 | 0.50 | 0.50 | 93 | 1002.5 |
| 20260830165205 | 59 | 91 | 3.5 | 7.0 | 0.19 | 0.50 | 0.50 | 93 | 1002.6 |
| 20260830164705 | 60 | 97 | 2.6 | 7.0 | 0.14 | 0.46 | 0.49 | 93 | 1002.7 |
| 20260830163705 | 60 | 143 | 3.5 | 7.0 | 0.04 | 0.35 | 0.35 | 93 | 1002.7 |
| 20260830163205 | 60 | 97 | 3.5 | 7.8 | 0.01 | 0.31 | 0.31 | 93 | 1002.6 |
| 20260830162704 | 60 | 90 | 3.5 | 7.8 | 0.00 | 0.31 | 0.31 | 93 | 1002.5 |
| 20260830162206 | 60 | 90 | 3.5 | 7.8 | 0.00 | 0.31 | 0.31 | 93 | 1002.5 |
| 20260830161705 | 60 | 47 | 4.3 | 7.8 | 0.00 | 0.31 | 0.31 | 93 | 1002.5 |
| 20260830161205 | 60 | 125 | 4.3 | 8.7 | 0.00 | 0.31 | 0.31 | 93 | 1002.4 |
| 20260830160705 | 60 | 85 | 4.3 | 9.6 | 0.00 | 0.31 | 0.31 | 93 | 1002.4 |
| 20260830160204 | 60 | 61 | 5.2 | 9.6 | 0.00 | 0.31 | 0.31 | 93 | 1002.3 |
| 20260830155705 | 60 | 55 | 5.2 | 9.6 | 0.00 | 0.31 | 0.31 | 93 | 1002.2 |
| 20260830155204 | 60 | 90 | 4.3 | 9.6 | 0.00 | 0.31 | 0.31 | 93 | 1002.3 |
| 20260830154205 | 60 | 61 | 4.3 | 8.7 | 0.00 | 0.31 | 0.31 | 93 | 1002.2 |
| 20260830153705 | 60 | 73 | 5.2 | 8.7 | 0.00 | 0.31 | 0.31 | 93 | 1002.3 |
| 20260830153205 | 61 | 88 | 4.3 | 8.7 | 0.00 | 0.31 | 0.31 | 93 | 1002.4 |
| 20260830152705 | 61 | 88 | 5.2 | 8.7 | 0.00 | 0.31 | 0.31 | 93 | 1002.4 |
| 20260830152206 | 61 | 80 | 5.2 | 8.7 | 0.00 | 0.31 | 0.31 | 93 | 1002.4 |